Flag for Canada Weather past 2 weeks in Whitehorse, Yukon, Canada

Now
39 °F

Light rain. Mostly cloudy.


Feels Like: 33 °F
Forecast: 42 / 48 °F
Wind: 9 mph from North

Location: Whitehorse

Current Time: Aug 28, 2015 at 10:34:47 AM

Latest Report: Aug 28, 2015 at 10:00 AM


Visibility: 20 mi

Pressure: 29.67 "Hg (27.42 "Hg at 640m altitude)

Humidity: 87%

Dew point: 36 °F

Location of WhitehorseLocation

Historic Weather in Whitehorse — Graph

°F

Whitehorse temperature yesterday

Maximum temperature yesterday: 50 °F (at 12:00 AM)
Minimum temperature yesterday: 46 °F (at 8:00 PM)
Average temperature yesterday: 49 °F

Past Weeks' High & Low Weather Summary

 TemperatureHumidityPressure
High72 °F (Aug 15, 6:00 PM)100% (Aug 20, 3:00 AM)30.27 "Hg (Aug 20, 3:00 AM)
Low37 °F (Aug 26, 6:00 AM)25% (Aug 15, 6:00 PM)29.53 "Hg (Aug 27, 9:00 PM)
Average53 °F68%29.98 "Hg
* Reported Aug 13 9:00 AM — Aug 28 9:00 AM, Whitehorse, Weather by CustomWeather, © 2015

Note: Actual official high and low records may vary slightly from our data, if they occured in-between our weather recording intervals... More about our weather records

Advertising

Whitehorse weather history for previous 24 hours

 ConditionsComfort  
Time TempWeatherWind HumidityBarometerVisibility
9:00 AM
Fri, Aug 28
39 °FLight rain. Mostly cloudy.9 mph87%29.67 "Hg25 mi
8:00 AM39 °FLight rain. Fog.9 mph100%29.65 "Hg5 mi
7:00 AM41 °FLight rain. Fog.7 mph93%29.62 "Hg3 mi
6:00 AM41 °FLight rain. Fog.5 mph100%29.61 "Hg1 mi
5:48 AM41 °FLight rain. Fog.8 mph100%29.60 "Hg2 mi
5:00 AM41 °FLight rain. Mostly cloudy.7 mph93%29.59 "Hg10 mi
4:00 AM41 °FLight rain. Mostly cloudy.5 mph100%29.58 "Hg10 mi
3:00 AM43 °FLight rain. Fog.5 mph93%29.57 "Hg6 mi
2:00 AM43 °FLight rain. Fog.2 mph93%29.56 "Hg6 mi
1:00 AM43 °FRain. Fog.3 mph100%29.54 "Hg4 mi
12:00 AM45 °FMostly cloudy.12 mph93%29.53 "Hg10 mi
11:00 PM
Thu, Aug 27
46 °FLight rain. Mostly cloudy.12 mph87%29.53 "Hg10 mi
10:00 PM46 °FLight rain. More clouds than sun.7 mph87%29.53 "Hg10 mi
9:00 PM46 °FLight rain. More clouds than sun.13 mph93%29.53 "Hg10 mi
8:00 PM46 °FLight rain. More clouds than sun.10 mph93%29.54 "Hg10 mi
7:00 PM48 °FLight rain. Low clouds.10 mph87%29.55 "Hg10 mi
6:00 PM48 °FLight rain. Low clouds.12 mph94%29.56 "Hg15 mi
5:00 PM48 °FLight rain. Low clouds.13 mph94%29.57 "Hg15 mi
4:00 PM48 °FLight rain. Low clouds.12 mph94%29.58 "Hg15 mi
3:00 PM50 °FLight rain. Low clouds.13 mph88%29.60 "Hg10 mi
2:00 PM50 °FLight rain. Low clouds.13 mph88%29.62 "Hg15 mi
1:00 PM50 °FLight rain. Low clouds.12 mph88%29.63 "Hg10 mi
12:00 PM50 °FSprinkles. Mostly cloudy.13 mph88%29.65 "Hg40 mi
11:47 AM50 °FSprinkles. Mostly cloudy.14 mph82%29.65 "Hg40 mi
11:00 AM50 °FMostly cloudy.14 mph82%29.67 "Hg40 mi
10:00 AM50 °FLight rain. Overcast.9 mph82%29.70 "Hg30 mi
Weather by CustomWeather, © 2015

See weather overviewHow to use our weather pages